Location: Pcim
(49.7500°N, 19.9670°E)
Time: 16:49:53
(UTC+02:00)

ISS - Visible Passes

Search period start: 19 April 2024 00:00
Search period end: 29 April 2024 00:00
Orbit: 412 x 419 km, 51.6° (Epoch: 18 April)

Date Brightness Start Highest point End Pass type
(mag) Time Alt. Az. Time Alt. Az. Time Alt. Az.
21 Apr -1.1 04:47:42 10° SSE 04:49:14 13° SE 04:50:45 10° ESE visible
23 Apr -2.1 04:44:55 10° SSW 04:47:45 26° SE 04:50:36 10° E visible
24 Apr -1.6 03:57:13 13° S 03:58:56 18° SE 04:01:15 10° E visible
25 Apr -1.2 03:10:03 11° SE 03:10:08 11° SE 03:11:17 10° ESE visible
25 Apr -3.3 04:42:59 10° SW 04:46:14 51° SSE 04:49:29 10° ENE visible
26 Apr -2.8 03:55:38 22° SSW 03:57:14 35° SSE 04:00:19 10° E visible
27 Apr -2.2 03:08:16 24° SE 03:08:16 24° SE 03:11:00 10° E visible
27 Apr -3.8 04:41:19 10° WSW 04:44:39 89° SSE 04:47:59 10° ENE visible
28 Apr -1.1 02:20:49 12° ESE 02:20:49 12° ESE 02:21:23 10° E visible
28 Apr -3.7 03:53:39 24° SW 03:55:29 67° SSE 03:58:47 10° ENE visible
